Lid_Strength_Index
3 4 4 3 3 4 4 4 3 4 4 3 4 4 5 6 6 7 7 8 9 8
4 4 4 3 4 4 4 3 4 5 4 5 6 7 7 8 8 8 9 9 9 9
4 4 3 4 4 5 5 5 6 6 6 7 7 7 8 9 9 9 10 9 9 8
4 4 4 5 6 6 6 6 6 6 6 7 8 8 9 9 9 10 10 9 9 8
5 5 6 6 7 6 6 6 7 6 7 7 8 9 9 9 10 10 10 10 9 9
6 7 7 8 7 7 7 8 8 7 7 8 9 9 10 10 10 10 10 10 9 9
7 8 8 8 8 8 8 8 8 8 8 9 9 9 10 10 11 10 10 10 9 8
9 9 8 9 9 9 9 9 9 8 9 9 9 9 10 10 11 11 11 10 9 9
9 9 10 10 10 10 10 10 9 10 9 10 9 8 8 8 11 11 11 11 11 10
9 10 11 11 11 11 11 11 12 11 11 11 10 9 9 8 11 12 12 12 12 11
11 11 11 12 12 12 12 12 12 11 11 9 10 10 10 10 12 12 12 12 12 12
11 12 12 12 13 12 12 12 12 11 10 13 13 11 11 12 13 13 14 13 12 11
11 11 13 13 13 13 14 14 13 13 12 11 13 11 11 11 13 15 14 14 13 11
12 13 14 14 15 15 15 15 15 14 14 14 13 13 11 11 13 14 14 14 13 12